"read_dt","SO2 (ppb)","flags","PMT voltage (V)","lamp voltage (V)","lamp intensity (Hz)","internal temp (C)","react chamber temp (C)","sample flow (l/min)","pres (mmHg)","SO2 bkg (ppb)","SO2 coefficient"
2016-07-11 00:00:00,2034E-3,5C000400,-0724,0828,12304,028.8,045.5,0.253,747.4,01.17,0.508
2016-07-11 00:01:00,2016E-3,5C000400,-0724,0828,12220,028.8,045.4,0.254,747.4,01.17,0.508
2016-07-11 00:02:00,2034E-3,5C000400,-0724,0828,12209,028.8,045.4,0.254,747.4,01.17,0.508
2016-07-11 00:03:00,2081E-3,5C000400,-0724,0828,12327,028.8,045.4,0.254,747.4,01.17,0.508
2016-07-11 00:04:00,1849E-3,5C000400,-0724,0827,12217,028.8,045.4,0.254,747.5,01.17,0.508
2016-07-11 00:05:00,1922E-3,5C000400,-0724,0827,12118,028.8,045.4,0.254,747.5,01.17,0.508
2016-07-11 00:06:00,1934E-3,5C000400,-0724,0827,12175,028.8,045.5,0.254,747.5,01.17,0.508
2016-07-11 00:07:00,2152E-3,5C000400,-0724,0828,12210,028.8,045.5,0.253,747.5,01.17,0.508
2016-07-11 00:08:00,1880E-3,5C000400,-0724,0828,12263,028.7,045.4,0.253,747.4,01.17,0.508
2016-07-11 00:09:00,2005E-3,5C000400,-0724,0827,12181,028.8,045.5,0.253,747.5,01.17,0.508
2016-07-11 00:10:00,2091E-3,5C000400,-0724,0828,12186,028.8,045.4,0.253,747.5,01.17,0.508
2016-07-11 00:11:00,2034E-3,5C000400,-0724,0827,12234,028.8,045.4,0.253,747.5,01.17,0.508
2016-07-11 00:12:00,1999E-3,5C000400,-0724,0828,12144,028.7,045.5,0.253,747.4,01.17,0.508
2016-07-11 00:13:00,2005E-3,5C000400,-0724,0828,12233,028.8,045.4,0.253,747.4,01.17,0.508
2016-07-11 00:14:00,2009E-3,5C000400,-0724,0828,12174,028.8,045.4,0.254,747.5,01.17,0.508
2016-07-11 00:15:00,1886E-3,5C000400,-0724,0827,12355,028.8,045.4,0.254,747.5,01.17,0.508
2016-07-11 00:16:00,1904E-3,5C000400,-0724,0827,12251,028.8,045.4,0.254,747.5,01.17,0.508
2016-07-11 00:17:00,2094E-3,5C000400,-0724,0828,12117,028.7,045.4,0.254,747.3,01.17,0.508
2016-07-11 00:18:00,2082E-3,5C000400,-0724,0828,12117,028.8,045.5,0.254,747.4,01.17,0.508
2016-07-11 00:19:00,1962E-3,5C000400,-0724,0828,12112,028.8,045.4,0.254,747.4,01.17,0.508
2016-07-11 00:20:00,2043E-3,5C000400,-0724,0827,12204,028.8,045.4,0.253,747.4,01.17,0.508
2016-07-11 00:21:00,2028E-3,5C000400,-0724,0828,12194,028.8,045.4,0.253,747.4,01.17,0.508
2016-07-11 00:22:00,1899E-3,5C000400,-0724,0828,12254,028.8,045.5,0.253,747.4,01.17,0.508
2016-07-11 00:23:00,1998E-3,5C000400,-0724,0828,12217,028.8,045.5,0.253,747.3,01.17,0.508
2016-07-11 00:24:00,1928E-3,5C000400,-0724,0828,12045,028.8,045.5,0.253,747.4,01.17,0.508
2016-07-11 00:25:00,1955E-3,5C000400,-0724,0829,12231,028.8,045.4,0.253,747.5,01.17,0.508
2016-07-11 00:26:00,2076E-3,5C000400,-0724,0828,12142,028.8,045.4,0.253,747.5,01.17,0.508
2016-07-11 00:27:00,2052E-3,5C000400,-0724,0828,12096,028.8,045.4,0.254,747.4,01.17,0.508
2016-07-11 00:28:00,1926E-3,5C000400,-0724,0828,12226,028.8,045.4,0.254,747.4,01.17,0.508
2016-07-11 00:29:00,1938E-3,5C000400,-0724,0827,12272,028.8,045.5,0.254,747.4,01.17,0.508
2016-07-11 00:30:00,2021E-3,5C000400,-0724,0828,12095,028.8,045.5,0.254,747.4,01.17,0.508
2016-07-11 00:31:00,1961E-3,5C000400,-0724,0828,12190,028.8,045.5,0.254,747.4,01.17,0.508
2016-07-11 00:32:00,1903E-3,5C000400,-0724,0828,12294,028.8,045.4,0.253,747.4,01.17,0.508
2016-07-11 00:33:00,2012E-3,5C000400,-0724,0828,12319,028.8,045.5,0.253,747.3,01.17,0.508
2016-07-11 00:34:00,1888E-3,5C000400,-0724,0828,12173,028.8,045.5,0.253,747.4,01.17,0.508
2016-07-11 00:35:00,2063E-3,5C000400,-0724,0828,12275,028.8,045.5,0.253,747.4,01.17,0.508
2016-07-11 00:36:00,2052E-3,5C000400,-0724,0827,12290,028.8,045.4,0.253,747.4,01.17,0.508
2016-07-11 00:37:00,2015E-3,5C000400,-0724,0828,12178,028.8,045.4,0.253,747.3,01.17,0.508
2016-07-11 00:38:00,2012E-3,5C000400,-0724,0828,12318,028.8,045.5,0.254,747.4,01.17,0.508
2016-07-11 00:39:00,2097E-3,5C000400,-0724,0828,12240,028.8,045.4,0.254,747.3,01.17,0.508
2016-07-11 00:40:00,1941E-3,5C000400,-0724,0828,12309,028.8,045.4,0.254,747.3,01.17,0.508
2016-07-11 00:41:00,2034E-3,5C000400,-0724,0828,12221,028.8,045.5,0.254,747.3,01.17,0.508
2016-07-11 00:42:00,1982E-3,5C000400,-0724,0827,12162,028.8,045.5,0.254,747.3,01.17,0.508
2016-07-11 00:43:00,1979E-3,5C000400,-0724,0828,12292,028.8,045.4,0.253,747.3,01.17,0.508
2016-07-11 00:44:00,1957E-3,5C000400,-0724,0828,12296,028.8,045.4,0.253,747.3,01.17,0.508
2016-07-11 00:45:00,2104E-3,5C000400,-0724,0828,12139,028.8,045.5,0.253,747.3,01.17,0.508
2016-07-11 00:46:00,2025E-3,5C000400,-0724,0827,12210,028.8,045.5,0.253,747.2,01.17,0.508
2016-07-11 00:47:00,1936E-3,5C000400,-0724,0828,12169,028.8,045.4,0.253,747.3,01.17,0.508
2016-07-11 00:48:00,1874E-3,5C000400,-0724,0827,12213,028.8,045.5,0.253,747.3,01.17,0.508
2016-07-11 00:49:00,2136E-3,5C000400,-0724,0827,12325,028.8,045.5,0.253,747.3,01.17,0.508
2016-07-11 00:50:00,1799E-3,5C000400,-0724,0829,12088,028.8,045.5,0.253,747.3,01.17,0.508
2016-07-11 00:51:00,1902E-3,5C000400,-0724,0828,12174,028.8,045.5,0.253,747.4,01.17,0.508
2016-07-11 00:52:00,2035E-3,5C000400,-0724,0827,11994,028.8,045.5,0.253,747.4,01.17,0.508
2016-07-11 00:53:00,1895E-3,5C000400,-0724,0828,12112,028.8,045.4,0.253,747.3,01.17,0.508
2016-07-11 00:54:00,1966E-3,5C000400,-0724,0827,12231,028.8,045.5,0.254,747.3,01.17,0.508
2016-07-11 00:55:00,1977E-3,5C000400,-0724,0828,12245,028.8,045.4,0.254,747.3,01.17,0.508
2016-07-11 00:56:00,2084E-3,5C000400,-0724,0828,12229,028.8,045.4,0.253,747.4,01.17,0.508
2016-07-11 00:57:00,2046E-3,5C000400,-0724,0828,12130,028.8,045.4,0.253,747.4,01.17,0.508
2016-07-11 00:58:00,2023E-3,5C000400,-0724,0828,12154,028.8,045.5,0.254,747.3,01.17,0.508
2016-07-11 00:59:00,2013E-3,5C000400,-0724,0828,12207,028.8,045.5,0.254,747.3,01.17,0.508
2016-07-11 01:00:00,1985E-3,5C000400,-0724,0828,12040,028.8,045.5,0.254,747.3,01.17,0.508
2016-07-11 01:01:00,2067E-3,5C000400,-0724,0829,12235,028.8,045.5,0.254,747.3,01.17,0.508
2016-07-11 01:02:00,2016E-3,5C000400,-0724,0828,12158,028.8,045.5,0.253,747.2,01.17,0.508
2016-07-11 01:03:00,1986E-3,5C000400,-0724,0828,12199,028.8,045.4,0.253,747.2,01.17,0.508
2016-07-11 01:04:00,1949E-3,5C000400,-0724,0828,12193,028.8,045.4,0.253,747.2,01.17,0.508
2016-07-11 01:05:00,2098E-3,5C000400,-0724,0827,12323,028.8,045.5,0.253,747.3,01.17,0.508
2016-07-11 01:06:00,1901E-3,5C000400,-0724,0828,12284,028.8,045.5,0.253,747.3,01.17,0.508
2016-07-11 01:07:00,2012E-3,5C000400,-0724,0828,12286,028.8,045.4,0.253,747.3,01.17,0.508
2016-07-11 01:08:00,2063E-3,5C000400,-0724,0828,12154,028.8,045.4,0.253,747.2,01.17,0.508
2016-07-11 01:09:00,1995E-3,5C000400,-0724,0828,12104,028.8,045.4,0.253,747.2,01.17,0.508
2016-07-11 01:10:00,2054E-3,5C000400,-0724,0827,12298,028.8,045.5,0.253,747.2,01.17,0.508
2016-07-11 01:11:00,2017E-3,5C000400,-0724,0829,12303,028.8,045.5,0.254,747.2,01.17,0.508
2016-07-11 01:12:00,1926E-3,5C000400,-0724,0828,12056,028.8,045.5,0.254,747.2,01.17,0.508
2016-07-11 01:13:00,2015E-3,5C000400,-0724,0828,12215,028.8,045.4,0.253,747.2,01.17,0.508
2016-07-11 01:14:00,2023E-3,5C000400,-0724,0828,12169,028.8,045.4,0.253,747.2,01.17,0.508
2016-07-11 01:15:00,2084E-3,5C000400,-0724,0828,12311,028.9,045.4,0.253,747.2,01.17,0.508
2016-07-11 01:16:00,1826E-3,5C000400,-0724,0828,12274,028.9,045.5,0.253,747.2,01.17,0.508
2016-07-11 01:17:00,2005E-3,5C000400,-0724,0828,12215,028.8,045.5,0.253,747.2,01.17,0.508
2016-07-11 01:18:00,1922E-3,5C000400,-0724,0828,12142,028.9,045.5,0.253,747.2,01.17,0.508
2016-07-11 01:19:00,2031E-3,5C000400,-0724,0827,12305,028.9,045.4,0.253,747.1,01.17,0.508
2016-07-11 01:20:00,1965E-3,5C000400,-0724,0828,12173,028.9,045.5,0.253,747.1,01.17,0.508
2016-07-11 01:21:00,2033E-3,5C000400,-0724,0828,12353,028.8,045.5,0.253,747.1,01.17,0.508
2016-07-11 01:22:00,1971E-3,5C000400,-0724,0828,12278,028.9,045.5,0.253,747.1,01.17,0.508
2016-07-11 01:23:00,1949E-3,5C000400,-0724,0828,12047,028.9,045.4,0.254,747.0,01.17,0.508
2016-07-11 01:24:00,1864E-3,5C000400,-0724,0828,12269,028.9,045.4,0.253,747.0,01.17,0.508
2016-07-11 01:25:00,1956E-3,5C000400,-0724,0828,12149,028.9,045.4,0.253,747.0,01.17,0.508
2016-07-11 01:26:00,1953E-3,5C000400,-0724,0828,12274,028.9,045.5,0.253,747.1,01.17,0.508
2016-07-11 01:27:00,1895E-3,5C000400,-0724,0828,12185,028.9,045.5,0.253,747.0,01.17,0.508
2016-07-11 01:28:00,1916E-3,5C000400,-0724,0827,12152,028.9,045.5,0.253,747.1,01.17,0.508
2016-07-11 01:29:00,1964E-3,5C000400,-0724,0829,12111,028.9,045.5,0.253,747.1,01.17,0.508
2016-07-11 01:30:00,1992E-3,5C000400,-0724,0828,12115,028.9,045.5,0.253,747.0,01.17,0.508
2016-07-11 01:31:00,2212E-3,5C000400,-0724,0828,12186,028.9,045.5,0.253,747.0,01.17,0.508
2016-07-11 01:32:00,1974E-3,5C000400,-0724,0828,12319,028.9,045.4,0.253,747.0,01.17,0.508
2016-07-11 01:33:00,1924E-3,5C000400,-0724,0827,12209,028.9,045.4,0.253,747.1,01.17,0.508
2016-07-11 01:34:00,2071E-3,5C000400,-0724,0828,12207,028.9,045.4,0.253,747.0,01.17,0.508
2016-07-11 01:35:00,2104E-3,5C000400,-0724,0828,12224,028.9,045.5,0.253,747.1,01.17,0.508
2016-07-11 01:36:00,1966E-3,5C000400,-0724,0828,12255,028.9,045.4,0.253,747.0,01.17,0.508
2016-07-11 01:37:00,1930E-3,5C000400,-0724,0828,12203,028.9,045.5,0.253,747.0,01.17,0.508
2016-07-11 01:38:00,1954E-3,5C000400,-0724,0828,12293,028.9,045.4,0.253,747.0,01.17,0.508
2016-07-11 01:39:00,1940E-3,5C000400,-0724,0828,12288,028.9,045.5,0.253,747.1,01.17,0.508
2016-07-11 01:40:00,1907E-3,5C000400,-0724,0828,12366,028.9,045.5,0.253,747.0,01.17,0.508
2016-07-11 01:41:00,1985E-3,5C000400,-0724,0828,12164,028.9,045.5,0.253,747.0,01.17,0.508
2016-07-11 01:42:00,2082E-3,5C000400,-0724,0828,12085,028.9,045.5,0.253,746.9,01.17,0.508
2016-07-11 01:43:00,1880E-3,5C000400,-0724,0828,12192,028.9,045.4,0.253,747.0,01.17,0.508
2016-07-11 01:44:00,2026E-3,5C000400,-0724,0828,12100,028.9,045.4,0.253,747.0,01.17,0.508
2016-07-11 01:45:00,1982E-3,5C000400,-0724,0827,12228,028.9,045.5,0.253,747.0,01.17,0.508
2016-07-11 01:46:00,2030E-3,5C000400,-0724,0827,12151,028.9,045.5,0.253,747.0,01.17,0.508
2016-07-11 01:47:00,2093E-3,5C000400,-0724,0827,12267,028.9,045.5,0.253,747.0,01.17,0.508
2016-07-11 01:48:00,1961E-3,5C000400,-0724,0828,12164,028.9,045.5,0.253,747.0,01.17,0.508
2016-07-11 01:49:00,1998E-3,5C000400,-0724,0828,12248,028.9,045.5,0.253,747.0,01.17,0.508
2016-07-11 01:50:00,2110E-3,5C000400,-0724,0827,12345,028.9,045.5,0.253,746.9,01.17,0.508
2016-07-11 01:51:00,2050E-3,5C000400,-0724,0828,12079,028.9,045.4,0.253,746.9,01.17,0.508
2016-07-11 01:52:00,1977E-3,5C000400,-0724,0828,12115,028.9,045.5,0.253,747.0,01.17,0.508
2016-07-11 01:53:00,1953E-3,5C000400,-0724,0828,12203,028.9,045.5,0.253,747.0,01.17,0.508
2016-07-11 01:54:00,2044E-3,5C000400,-0724,0828,12303,028.9,045.5,0.253,746.9,01.17,0.508
2016-07-11 01:55:00,1948E-3,5C000400,-0724,0827,12241,028.9,045.5,0.253,747.0,01.17,0.508
2016-07-11 01:56:00,2062E-3,5C000400,-0724,0828,12105,028.9,045.4,0.253,746.9,01.17,0.508
2016-07-11 01:57:00,1979E-3,5C000400,-0724,0828,12240,028.9,045.5,0.253,746.9,01.17,0.508
2016-07-11 01:58:00,1926E-3,5C000400,-0724,0828,12250,028.9,045.5,0.253,746.9,01.17,0.508
2016-07-11 01:59:00,2125E-3,5C000400,-0724,0828,12134,028.9,045.5,0.253,746.8,01.17,0.508
2016-07-11 02:00:00,1959E-3,5C000400,-0724,0829,12182,028.9,045.5,0.253,746.9,01.17,0.508
2016-07-11 02:01:00,2006E-3,5C000400,-0724,0828,12260,028.9,045.4,0.253,746.9,01.17,0.508
2016-07-11 02:02:00,2031E-3,5C000400,-0724,0829,12146,028.9,045.5,0.253,746.8,01.17,0.508
2016-07-11 02:03:00,2030E-3,5C000400,-0724,0828,12315,028.9,045.5,0.253,746.8,01.17,0.508
2016-07-11 02:04:00,2016E-3,5C000400,-0724,0828,12218,028.9,045.4,0.253,746.7,01.17,0.508
2016-07-11 02:05:00,1884E-3,5C000400,-0724,0828,12299,028.9,045.5,0.253,746.7,01.17,0.508
2016-07-11 02:06:00,1838E-3,5C000400,-0724,0828,12182,028.9,045.4,0.253,746.7,01.17,0.508
2016-07-11 02:07:00,1995E-3,5C000400,-0724,0828,12104,028.9,045.5,0.253,746.8,01.17,0.508
2016-07-11 02:08:00,2048E-3,5C000400,-0724,0828,12365,028.9,045.5,0.253,746.7,01.17,0.508
2016-07-11 02:09:00,2002E-3,5C000400,-0724,0828,12277,028.9,045.5,0.253,746.8,01.17,0.508
2016-07-11 02:10:00,1967E-3,5C000400,-0724,0828,12197,029.0,045.5,0.253,746.8,01.17,0.508
2016-07-11 02:11:00,2026E-3,5C000400,-0724,0827,12119,029.0,045.4,0.253,746.7,01.17,0.508
2016-07-11 02:12:00,2031E-3,5C000400,-0724,0827,12120,028.9,045.5,0.253,746.9,01.17,0.508
2016-07-11 02:13:00,1988E-3,5C000400,-0724,0828,12303,028.9,045.5,0.253,746.9,01.17,0.508
2016-07-11 02:14:00,1995E-3,5C000400,-0724,0828,12099,029.0,045.5,0.253,746.9,01.17,0.508
2016-07-11 02:15:00,2013E-3,5C000400,-0724,0828,12308,028.9,045.5,0.253,746.9,01.17,0.508
2016-07-11 02:16:00,1919E-3,5C000400,-0724,0828,12164,029.0,045.5,0.253,746.9,01.17,0.508
2016-07-11 02:17:00,2082E-3,5C000400,-0724,0828,12275,029.0,045.5,0.253,746.9,01.17,0.508
2016-07-11 02:18:00,1950E-3,5C000400,-0724,0827,12178,029.0,045.5,0.253,746.9,01.17,0.508
2016-07-11 02:19:00,1962E-3,5C000400,-0724,0828,12227,029.0,045.5,0.253,746.9,01.17,0.508
2016-07-11 02:20:00,1888E-3,5C000400,-0724,0828,12029,029.0,045.5,0.253,746.9,01.17,0.508
2016-07-11 02:21:00,1909E-3,5C000400,-0724,0828,12116,029.0,045.5,0.253,746.9,01.17,0.508
2016-07-11 02:22:00,1937E-3,5C000400,-0724,0828,12143,029.0,045.5,0.253,746.9,01.17,0.508
2016-07-11 02:23:00,1982E-3,5C000400,-0724,0828,12235,029.0,045.5,0.253,746.9,01.17,0.508
2016-07-11 02:24:00,1923E-3,5C000400,-0724,0828,12315,029.0,045.5,0.253,747.0,01.17,0.508
2016-07-11 02:25:00,1992E-3,5C000400,-0724,0828,12303,029.0,045.5,0.253,747.0,01.17,0.508
2016-07-11 02:26:00,1884E-3,5C000400,-0724,0827,12175,029.0,045.5,0.253,747.0,01.17,0.508
2016-07-11 02:27:00,2078E-3,5C000400,-0724,0828,12175,029.0,045.5,0.253,746.8,01.17,0.508
2016-07-11 02:28:00,1956E-3,5C000400,-0724,0828,12283,029.0,045.5,0.253,746.9,01.17,0.508
2016-07-11 02:29:00,1911E-3,5C000400,-0724,0827,12171,029.0,045.5,0.253,747.0,01.17,0.508
2016-07-11 02:30:00,2050E-3,5C000400,-0724,0828,12232,029.0,045.4,0.253,747.0,01.17,0.508
2016-07-11 02:31:00,2059E-3,5C000400,-0724,0828,12217,029.0,045.5,0.253,747.0,01.17,0.508
2016-07-11 02:32:00,2041E-3,5C000400,-0724,0828,12180,029.0,045.5,0.253,746.8,01.17,0.508
2016-07-11 02:33:00,2024E-3,5C000400,-0724,0829,12126,029.0,045.5,0.253,746.9,01.17,0.508
2016-07-11 02:34:00,1922E-3,5C000400,-0724,0828,12261,029.0,045.4,0.253,746.9,01.17,0.508
2016-07-11 02:35:00,2017E-3,5C000400,-0724,0827,12198,029.0,045.4,0.253,747.0,01.17,0.508
2016-07-11 02:36:00,2036E-3,5C000400,-0724,0828,12266,029.0,045.5,0.253,746.9,01.17,0.508
2016-07-11 02:37:00,1968E-3,5C000400,-0724,0828,12336,029.1,045.5,0.253,746.9,01.17,0.508
2016-07-11 02:38:00,1958E-3,5C000400,-0724,0829,12150,029.0,045.5,0.253,746.8,01.17,0.508
2016-07-11 02:39:00,2018E-3,5C000400,-0724,0828,12344,029.0,045.5,0.253,746.9,01.17,0.508
2016-07-11 02:40:00,1877E-3,5C000400,-0724,0829,12150,029.0,045.5,0.253,746.9,01.17,0.508
2016-07-11 02:41:00,2023E-3,5C000400,-0724,0828,12239,029.0,045.5,0.253,746.9,01.17,0.508
2016-07-11 02:42:00,1994E-3,5C000400,-0724,0828,12336,029.1,045.5,0.253,746.8,01.17,0.508
2016-07-11 02:43:00,1923E-3,5C000400,-0724,0829,12197,029.1,045.5,0.253,746.8,01.17,0.508
2016-07-11 02:44:00,2113E-3,5C000400,-0724,0828,12222,029.1,045.5,0.253,746.9,01.17,0.508
2016-07-11 02:45:00,1891E-3,5C000400,-0724,0828,12245,029.1,045.5,0.253,746.7,01.17,0.508
2016-07-11 02:46:00,2017E-3,5C000400,-0724,0829,12152,029.1,045.5,0.253,746.8,01.17,0.508
2016-07-11 02:47:00,2024E-3,5C000400,-0724,0827,12107,029.1,045.5,0.253,746.9,01.17,0.508
2016-07-11 02:48:00,2031E-3,5C000400,-0724,0828,11920,029.1,045.5,0.253,746.8,01.17,0.508
2016-07-11 02:49:00,2005E-3,5C000400,-0724,0828,12189,029.1,045.5,0.253,746.8,01.17,0.508
2016-07-11 02:50:00,1997E-3,5C000400,-0724,0828,12210,029.1,045.5,0.253,746.7,01.17,0.508
2016-07-11 02:51:00,1978E-3,5C000400,-0724,0829,12221,029.1,045.5,0.253,746.8,01.17,0.508
2016-07-11 02:52:00,1978E-3,5C000400,-0724,0828,12281,029.1,045.5,0.253,746.8,01.17,0.508
2016-07-11 02:53:00,2013E-3,5C000400,-0724,0828,12280,029.1,045.5,0.253,746.8,01.17,0.508
2016-07-11 02:54:00,1931E-3,5C000400,-0724,0828,12163,029.1,045.5,0.252,746.8,01.17,0.508
2016-07-11 02:55:00,1978E-3,5C000400,-0724,0828,12195,029.1,045.5,0.253,746.8,01.17,0.508
2016-07-11 02:56:00,1974E-3,5C000400,-0724,0828,12218,029.1,045.5,0.253,746.7,01.17,0.508
2016-07-11 02:57:00,2026E-3,5C000400,-0724,0828,12334,029.1,045.5,0.253,746.8,01.17,0.508
2016-07-11 02:58:00,1933E-3,5C000400,-0724,0827,12174,029.1,045.5,0.253,746.8,01.17,0.508
2016-07-11 02:59:00,2082E-3,5C000400,-0724,0828,12223,029.1,045.5,0.253,746.7,01.17,0.508
2016-07-11 03:00:00,1920E-3,5C000400,-0724,0828,12082,029.1,045.5,0.253,746.9,01.17,0.508
2016-07-11 03:01:00,2025E-3,5C000400,-0724,0828,12224,029.1,045.5,0.253,746.7,01.17,0.508
2016-07-11 03:02:00,2062E-3,5C000400,-0724,0828,12248,029.1,045.5,0.253,746.7,01.17,0.508
2016-07-11 03:03:00,2009E-3,5C000400,-0724,0828,12123,029.1,045.5,0.253,746.8,01.17,0.508
2016-07-11 03:04:00,2134E-3,5C000400,-0724,0829,12149,029.1,045.5,0.252,746.8,01.17,0.508
2016-07-11 03:05:00,2003E-3,5C000400,-0724,0828,12242,029.1,045.5,0.253,746.8,01.17,0.508
2016-07-11 03:06:00,2140E-3,5C000400,-0724,0828,12225,029.1,045.5,0.253,746.8,01.17,0.508
2016-07-11 03:07:00,2001E-3,5C000400,-0724,0829,12236,029.1,045.5,0.253,746.8,01.17,0.508
2016-07-11 03:08:00,2027E-3,5C000400,-0724,0828,12216,029.1,045.5,0.253,746.7,01.17,0.508
2016-07-11 03:09:00,2059E-3,5C000400,-0724,0827,12193,029.1,045.5,0.253,746.8,01.17,0.508
2016-07-11 03:10:00,1994E-3,5C000400,-0724,0829,12231,029.1,045.5,0.253,746.9,01.17,0.508
2016-07-11 03:11:00,2204E-3,5C000400,-0724,0828,12086,029.1,045.5,0.253,746.9,01.17,0.508
2016-07-11 03:12:00,1964E-3,5C000400,-0724,0828,12195,029.2,045.5,0.253,746.9,01.17,0.508
2016-07-11 03:13:00,1964E-3,5C000400,-0724,0828,12119,029.1,045.5,0.252,746.9,01.17,0.508
2016-07-11 03:14:00,1990E-3,5C000400,-0724,0828,12113,029.1,045.5,0.252,746.8,01.17,0.508
2016-07-11 03:15:00,1946E-3,5C000400,-0724,0828,12264,029.2,045.5,0.253,746.8,01.17,0.508
2016-07-11 03:16:00,2048E-3,5C000400,-0724,0829,12223,029.2,045.5,0.253,746.9,01.17,0.508
2016-07-11 03:17:00,2049E-3,5C000400,-0724,0828,12167,029.2,045.5,0.253,746.8,01.17,0.508
2016-07-11 03:18:00,1979E-3,5C000400,-0724,0827,12133,029.2,045.5,0.253,746.7,01.17,0.508
2016-07-11 03:19:00,2084E-3,5C000400,-0724,0828,12230,029.2,045.5,0.253,746.8,01.17,0.508
2016-07-11 03:20:00,2017E-3,5C000400,-0724,0828,12257,029.2,045.5,0.253,746.9,01.17,0.508
2016-07-11 03:21:00,1999E-3,5C000400,-0724,0828,12306,029.2,045.5,0.253,746.9,01.17,0.508
2016-07-11 03:22:00,1988E-3,5C000400,-0724,0829,12131,029.2,045.5,0.253,746.8,01.17,0.508
2016-07-11 03:23:00,1931E-3,5C000400,-0724,0828,12132,029.2,045.5,0.252,746.9,01.17,0.508
2016-07-11 03:24:00,2157E-3,5C000400,-0724,0828,12250,029.2,045.5,0.252,746.7,01.17,0.508
2016-07-11 03:25:00,1879E-3,5C000400,-0724,0828,12238,029.2,045.5,0.253,746.8,01.17,0.508
2016-07-11 03:26:00,1983E-3,5C000400,-0724,0827,12239,029.2,045.5,0.253,746.8,01.17,0.508
2016-07-11 03:27:00,2060E-3,5C000400,-0724,0828,12286,029.2,045.5,0.253,746.8,01.17,0.508
2016-07-11 03:28:00,2091E-3,5C000400,-0724,0828,12176,029.2,045.5,0.253,746.8,01.17,0.508
2016-07-11 03:29:00,1984E-3,5C000400,-0724,0828,12204,029.2,045.5,0.253,746.9,01.17,0.508
2016-07-11 03:30:00,1840E-3,5C000400,-0724,0829,12277,029.2,045.5,0.253,746.7,01.17,0.508
2016-07-11 03:31:00,2002E-3,5C000400,-0724,0828,12288,029.2,045.4,0.253,746.8,01.17,0.508
2016-07-11 03:32:00,1938E-3,5C000400,-0724,0828,12179,029.2,045.5,0.252,746.8,01.17,0.508
2016-07-11 03:33:00,1976E-3,5C000400,-0724,0828,12147,029.2,045.5,0.252,746.8,01.17,0.508
2016-07-11 03:34:00,2134E-3,5C000400,-0724,0828,12109,029.2,045.5,0.252,746.8,01.17,0.508
2016-07-11 03:35:00,2035E-3,5C000400,-0724,0829,12153,029.2,045.5,0.253,746.7,01.17,0.508
2016-07-11 03:36:00,2038E-3,5C000400,-0724,0828,12155,029.2,045.5,0.253,746.8,01.17,0.508
2016-07-11 03:37:00,1956E-3,5C000400,-0724,0828,12295,029.2,045.5,0.253,746.8,01.17,0.508
2016-07-11 03:38:00,1997E-3,5C000400,-0724,0828,12063,029.2,045.5,0.253,746.7,01.17,0.508
2016-07-11 03:39:00,2111E-3,5C000400,-0724,0828,12197,029.3,045.5,0.253,746.8,01.17,0.508
2016-07-11 03:40:00,1961E-3,5C000400,-0724,0828,12229,029.2,045.5,0.253,746.7,01.17,0.508
2016-07-11 03:41:00,1995E-3,5C000400,-0724,0827,12167,029.3,045.5,0.253,746.7,01.17,0.508
2016-07-11 03:42:00,1953E-3,5C000400,-0724,0828,12203,029.3,045.5,0.253,746.7,01.17,0.508
2016-07-11 03:43:00,2052E-3,5C000400,-0724,0829,12303,029.3,045.5,0.252,746.7,01.17,0.508
2016-07-11 03:44:00,1911E-3,5C000400,-0724,0829,12165,029.3,045.5,0.252,746.7,01.17,0.508
2016-07-11 03:45:00,2021E-3,5C000400,-0724,0828,12244,029.2,045.5,0.252,746.7,01.17,0.508
2016-07-11 03:46:00,1947E-3,5C000400,-0724,0829,12251,029.3,045.5,0.253,746.8,01.17,0.508
2016-07-11 03:47:00,2003E-3,5C000400,-0724,0828,12234,029.2,045.5,0.253,746.7,01.17,0.508
2016-07-11 03:48:00,2023E-3,5C000400,-0724,0828,12087,029.3,045.5,0.253,746.6,01.17,0.508
2016-07-11 03:49:00,2006E-3,5C000400,-0724,0828,12186,029.3,045.5,0.253,746.7,01.17,0.508
2016-07-11 03:50:00,1979E-3,5C000400,-0724,0828,12210,029.3,045.5,0.253,746.6,01.17,0.508
2016-07-11 03:51:00,1986E-3,5C000400,-0724,0828,12217,029.3,045.5,0.253,746.7,01.17,0.508
2016-07-11 03:52:00,1964E-3,5C000400,-0724,0828,12239,029.3,045.5,0.253,746.7,01.17,0.508
2016-07-11 03:53:00,2163E-3,5C000400,-0724,0829,12205,029.3,045.5,0.253,746.7,01.17,0.508
2016-07-11 03:54:00,2069E-3,5C000400,-0724,0828,12169,029.3,045.5,0.252,746.7,01.17,0.508
2016-07-11 03:55:00,2110E-3,5C000400,-0724,0828,12190,029.3,045.5,0.252,746.7,01.17,0.508
2016-07-11 03:56:00,1819E-3,5C000400,-0724,0828,12208,029.3,045.5,0.252,746.7,01.17,0.508
2016-07-11 03:57:00,2066E-3,5C000400,-0724,0828,12257,029.3,045.5,0.252,746.7,01.17,0.508
2016-07-11 03:58:00,1995E-3,5C000400,-0724,0829,12282,029.3,045.5,0.253,746.7,01.17,0.508
2016-07-11 03:59:00,2058E-3,5C000400,-0724,0828,12173,029.3,045.5,0.253,746.6,01.17,0.508
2016-07-11 04:00:00,2080E-3,5C000400,-0724,0828,12259,029.3,045.5,0.253,746.7,01.17,0.508
2016-07-11 04:01:00,1832E-3,5C000400,-0724,0828,12065,029.3,045.5,0.253,746.7,01.17,0.508
2016-07-11 04:02:00,2039E-3,5C000400,-0724,0828,12088,029.3,045.4,0.253,746.7,01.17,0.508
2016-07-11 04:03:00,1964E-3,5C000400,-0724,0828,12011,029.3,045.5,0.252,746.7,01.17,0.508
2016-07-11 04:04:00,1933E-3,5C000400,-0724,0829,12211,029.3,045.5,0.252,746.7,01.17,0.508
2016-07-11 04:05:00,1895E-3,5C000400,-0724,0828,12231,029.3,045.5,0.252,746.7,01.17,0.508
2016-07-11 04:06:00,2064E-3,5C000400,-0724,0828,12189,029.3,045.5,0.252,746.7,01.17,0.508
2016-07-11 04:07:00,1931E-3,5C000400,-0724,0829,12004,029.3,045.5,0.252,746.7,01.17,0.508
2016-07-11 04:08:00,2070E-3,5C000400,-0724,0827,12188,029.3,045.5,0.253,746.7,01.17,0.508
2016-07-11 04:09:00,1879E-3,5C000400,-0724,0829,12284,029.3,045.5,0.253,746.7,01.17,0.508
2016-07-11 04:10:00,2097E-3,5C000400,-0724,0829,12021,029.3,045.5,0.253,746.6,01.17,0.508
2016-07-11 04:11:00,1980E-3,5C000400,-0724,0829,12241,029.3,045.5,0.252,746.6,01.17,0.508
2016-07-11 04:12:00,2092E-3,5C000400,-0724,0828,12176,029.3,045.5,0.252,746.6,01.17,0.508
2016-07-11 04:13:00,2105E-3,5C000400,-0724,0828,12275,029.3,045.5,0.253,746.7,01.17,0.508
2016-07-11 04:14:00,1887E-3,5C000400,-0724,0828,12217,029.3,045.5,0.253,746.7,01.17,0.508
2016-07-11 04:15:00,1956E-3,5C000400,-0724,0828,12225,029.3,045.5,0.253,746.7,01.17,0.508
2016-07-11 04:16:00,2118E-3,5C000400,-0724,0828,12204,029.3,045.5,0.253,746.7,01.17,0.508
2016-07-11 04:17:00,2041E-3,5C000400,-0724,0828,12248,029.3,045.5,0.253,746.7,01.17,0.508
2016-07-11 04:18:00,1929E-3,5C000400,-0724,0828,12143,029.3,045.5,0.252,746.7,01.17,0.508
2016-07-11 04:19:00,1956E-3,5C000400,-0724,0827,12316,029.3,045.5,0.252,746.7,01.17,0.508
2016-07-11 04:20:00,1923E-3,5C000400,-0724,0828,12196,029.3,045.5,0.252,746.7,01.17,0.508